Flag for Brazil Weather past 2 weeks in Passo Fundo, Rio Grande do Sul, Brazil

Now
72 °F

Passing clouds.


Feels Like: 67 °F
Forecast: 66 / 84 °F
Wind: 1 mph from West

Location: Porto Alegre Aero-Porto

Current Time: Feb 27, 2015 at 1:08:32 AM

Latest Report: Feb 27, 2015 at 12:00 AM


Visibility: N/A

Pressure: 29.83 "Hg

Humidity: 94%

Dew point: 70 °F

Location of Passo FundoLocation

Historic Weather in Passo Fundo — Graph

°F

Passo Fundo temperature yesterday

Maximum temperature yesterday: 86 °F (at 2:00 PM)
Minimum temperature yesterday: 72 °F (at 2:00 AM)
Average temperature yesterday: 76 °F

Past Weeks' High & Low Weather Summary

 TemperatureHumidityPressure
High91 °F (Feb 19, 3:00 PM)100% (Feb 13, 5:00 AM)30.12 "Hg (Feb 13, 5:00 AM)
Low32 °F (Feb 24, 8:00 AM)49% (Feb 19, 3:00 PM)29.59 "Hg (Feb 19, 4:00 PM)
Average77 °F81%29.94 "Hg
* Reported Feb 12 1:00 AM — Midnight between Feb 26 and Feb 27, Passo Fundo, Weather by CustomWeather, © 2015

Note: Actual official high and low records may vary slightly from our data, if they occured in-between our weather recording intervals... More about our weather records

Advertising

Passo Fundo weather history for previous 24 hours

 ConditionsComfort  
Time TempWeatherWind HumidityBarometerVisibility
12:00 AM
Fri, Feb 27
72 °FPassing clouds.1 mph94%29.83 "HgN/A
11:00 PM
Thu, Feb 26
72 °FPartly cloudy.5 mph94%29.83 "HgN/A
10:00 PM72 °FPassing clouds.6 mph94%29.83 "Hg4 mi
9:00 PM73 °FLight rain. Overcast.8 mph94%29.80 "Hg3 mi
8:00 PM75 °FThunderstorms. Fog.3 mph89%29.83 "Hg3 mi
7:00 PM73 °FThunderstorms. Fog.5 mph94%29.83 "Hg3 mi
6:00 PM73 °FPartly sunny.20 mph83%29.83 "HgN/A
5:00 PM82 °FScattered clouds.8 mph70%29.80 "HgN/A
4:00 PM86 °FPassing clouds.9 mph62%29.80 "HgN/A
3:00 PM86 °FScattered clouds.5 mph62%29.83 "HgN/A
2:00 PM86 °FPartly sunny.2 mph62%29.86 "HgN/A
1:00 PM82 °FPartly sunny.3 mph66%29.86 "HgN/A
12:00 PM81 °FBroken clouds.5 mph74%29.89 "HgN/A
11:00 AM79 °FPartly sunny.6 mph79%29.92 "HgN/A
10:00 AM77 °FPartly sunny.6 mph83%29.92 "HgN/A
9:00 AM73 °FPartly sunny.7 mph89%29.92 "HgN/A
8:10 AM73 °FPartly sunny.6 mph94%29.89 "HgN/A
8:00 AM73 °FBroken clouds.5 mph94%29.89 "HgN/A
7:00 AM72 °FPartly sunny.3 mph94%29.89 "HgN/A
6:00 AM72 °FBroken clouds.3 mph94%29.89 "HgN/A
5:00 AM72 °FPassing clouds.5 mph94%29.86 "Hg4 mi
4:00 AM72 °FPartly cloudy.8 mph94%29.89 "Hg4 mi
3:00 AM72 °FRain. Low clouds.8 mph100%29.95 "Hg4 mi
2:00 AM72 °FLight rain. Passing clouds.9 mph94%29.92 "Hg4 mi
Weather by CustomWeather, © 2015

See weather overviewHow to use our weather pages